Showing default

ERNST, 60528

Orbit data source: Space-Track

ERNST, 60528 is a German payload satellite in SSO that was launched on Fri, 16 Aug 2024 UTC via an FALCON 9 launch vehicle from the Air Force Western Test Range (AFWTR). Payload-class satellites include a variety of spacecraft equipped with specific instruments for various scientific and technological missions. These include communications satellites like Starlink; space stations such as the ISS; scientific satellites like the Hubble; Earth observation satellites from companies like Planet Labs, Umbra, and HawkEye 360; GPS; miniature CubeSats for education and research; and military/defense satellites.

Loading next visibility...
Identifier
60528, 2024-149BN
Orbit
SSO
Country
Flag of DEDE / GER
Related business
Manufacturer
FRAUN
Mission
Operational Amateur Technology
Bus & Motor
CUBESAT 12U, Unknown motor
Mass
20 kg wet, 20 kg dry
Launch date (UTC)
2024-08-16 (2 years ago)
Launch vehicle
FALCON 9
Launch site
Air Force Western Test Range (AFWTR)
Object type
Payload
Rocket body
Debris
Shape & HBR
Box + 2 Pan + 1 Sail, 0.8 m
Radar Cross Section
0.205 m², Medium (>0.1 m² and < 1m²)

Expand to show TLE details & history
Last TLE update: 15 hours ago

TLE from 15 hours ago
0 ERNST
1 60528U 24149BN  26265.02890976  .00009496  00000-0  22903-3 0  9990
2 60528  97.3758 349.6038 0004365 313.6873  46.4011 15.41429434117185
Epoch: 2026-09-22T00:41Z
TLE epoch observation values (Epoch: 2026-09-22T00:41:37.803Z)
Latitude
-0.00008°
Longitude
-21.70396°
Altitude
442.957 km
Speed
7.647 km/s
True Right ascension
23h 18m 24s
True Declination
0° 00' 00"
Sunlit
Object was in full shadow at epoch
Visualization orbit readout
Latitude
Unknown
Longitude
Unknown
Altitude
Unknown
Speed
Unknown
Apparent Right ascension
Unknown
Apparent Declination
Unknown
Sunlit
N/A
Visualization observer readout
Local Sidereal Time
08:26:24
Azimuth
Unknown
Elevation
Unknown
Doppler factor
Unknown
Orbital elements
Apogee altitude
441.801 km
Perigee altitude
435.85 km
Semi-major axis
6,816.963 km
Eccentricity
0.00044
Inclination
97.3758°
RAAN
349.6038°
Arg. of periapsis
313.6873°
True anomaly
46.43734°
Mean anomaly
46.4011°
Eccentric anomaly
46.41922°
Mean motion
3.85618 °/min
Orbital period
93.36 mins
BSTAR
0.00022903
Loading maneuver chart data...
Computing Atmospheric mass density...
Loading historical data...
Loading historical data...
Loading historical data...
Loading historical data...
Loading historical data...
Loading historical data...
Loading historical data...

Documentation

Showing up to 5 results
|